| time (UTC) | temp F | wind direction | speed MPH | gust MPH | rain 1hr in | rain 24hr in | rain mn in | humidity % | barometer mb |
| 20260504180504 | 61 | 45 | 2.0 | 4.0 | 0.00 | 0.00 | 0.00 | 66 | 1015.9 |
| 20260504180004 | 63 | 45 | 2.0 | 4.0 | 0.00 | 0.00 | 0.00 | 62 | 1015.9 |
| 20260504175504 | 65 | 45 | 2.0 | 4.0 | 0.00 | 0.00 | 0.00 | 59 | 1015.7 |
| 20260504175024 | 66 | 45 | 1.0 | 4.0 | 0.00 | 0.00 | 0.00 | 57 | 1015.6 |
| 20260504174504 | 67 | 135 | 1.0 | 2.0 | 0.00 | 0.00 | 0.00 | 57 | 1015.6 |
| 20260504174024 | 67 | 135 | 1.0 | 3.0 | 0.00 | 0.00 | 0.00 | 56 | 1015.7 |
| 20260504173504 | 67 | 135 | 1.0 | 2.0 | 0.00 | 0.00 | 0.00 | 57 | 1015.7 |
| 20260504173004 | 67 | 135 | 1.0 | 2.0 | 0.00 | 0.00 | 0.00 | 58 | 1015.6 |
| 20260504172504 | 67 | 113 | 1.0 | 4.0 | 0.00 | 0.00 | 0.00 | 58 | 1015.5 |
| 20260504172004 | 67 | 135 | 1.0 | 2.0 | 0.00 | 0.00 | 0.00 | 59 | 1015.5 |
| 20260504171504 | 65 | 113 | 1.0 | 2.0 | 0.00 | 0.00 | 0.00 | 60 | 1015.5 |
| 20260504171004 | 65 | 113 | 2.0 | 4.0 | 0.00 | 0.00 | 0.00 | 62 | 1015.3 |
| 20260504170504 | 64 | 113 | 2.0 | 5.0 | 0.00 | 0.00 | 0.00 | 63 | 1015.3 |
| 20260504151004 | 57 | 113 | 1.0 | 2.0 | 0.00 | 0.00 | 0.00 | 77 | 1015.5 |
| 20260504150504 | 57 | 45 | 1.0 | 2.0 | 0.00 | 0.00 | 0.00 | 81 | 1015.4 |
| 20260504141003 | 48 | 225 | 1.0 | 2.0 | 0.00 | 0.00 | 0.00 | 90 | 1015.3 |
| 20260504140503 | 48 | 0.0 | 1.0 | 0.00 | 0.00 | 0.00 | 90 | 1015.3 | |
| 20260504130503 | 48 | 0.0 | 1.0 | 0.00 | 0.00 | 0.00 | 89 | 1014.9 | |
| 20260504110503 | 48 | 0.0 | 1.0 | 0.00 | 0.00 | 0.00 | 87 | 1015.1 | |
| 20260504100503 | 49 | 0.0 | 1.0 | 0.00 | 0.00 | 0.00 | 84 | 1014.9 | |
| 20260504082003 | 53 | 0.0 | 1.0 | 0.00 | 0.00 | 0.00 | 80 | 1015.3 | |
| 20260504081525 | 53 | 0.0 | 2.0 | 0.00 | 0.00 | 0.00 | 80 | 1015.3 | |
| 20260504081025 | 53 | 0 | 1.0 | 2.0 | 0.00 | 0.00 | 0.00 | 79 | 1015.4 |
| 20260504080545 | 53 | 0.0 | 2.0 | 0.00 | 0.00 | 0.00 | 78 | 1015.4 | |
| 20260504050505 | 55 | 293 | 1.0 | 4.0 | 0.00 | 0.00 | 0.00 | 77 | 1015.1 |
| 20260504050004 | 55 | 315 | 1.0 | 2.0 | 0.00 | 0.00 | 0.00 | 77 | 1015.1 |
| 20260504045524 | 55 | 315 | 1.0 | 2.0 | 0.00 | 0.00 | 0.00 | 76 | 1014.8 |
| 20260504045004 | 55 | 315 | 1.0 | 2.0 | 0.00 | 0.00 | 0.00 | 76 | 1014.7 |
| 20260504044505 | 55 | 315 | 1.0 | 2.0 | 0.00 | 0.00 | 0.00 | 76 | 1014.7 |
| 20260504044004 | 55 | 225 | 1.0 | 4.0 | 0.00 | 0.00 | 0.00 | 76 | 1014.7 |
| 20260504043504 | 55 | 225 | 1.0 | 4.0 | 0.00 | 0.00 | 0.00 | 75 | 1014.7 |
| 20260504043004 | 55 | 270 | 1.0 | 2.0 | 0.00 | 0.00 | 0.00 | 75 | 1014.6 |
| 20260504042504 | 55 | 270 | 1.0 | 2.0 | 0.00 | 0.00 | 0.00 | 75 | 1014.5 |
| 20260504042004 | 55 | 225 | 2.0 | 5.0 | 0.00 | 0.00 | 0.00 | 74 | 1014.5 |
| 20260504041504 | 55 | 225 | 2.0 | 5.0 | 0.00 | 0.00 | 0.00 | 74 | 1014.5 |
| 20260504041005 | 55 | 225 | 2.0 | 6.0 | 0.00 | 0.00 | 0.00 | 74 | 1014.5 |
| 20260504040524 | 55 | 203 | 1.0 | 5.0 | 0.00 | 0.00 | 0.00 | 74 | 1014.3 |
| 20260504040024 | 56 | 225 | 2.0 | 4.0 | 0.00 | 0.00 | 0.00 | 74 | 1014.3 |
| 20260504035504 | 56 | 225 | 2.0 | 6.0 | 0.00 | 0.00 | 0.00 | 74 | 1014.2 |
| 20260504035004 | 56 | 225 | 2.0 | 6.0 | 0.00 | 0.00 | 0.00 | 74 | 1014.1 |
| 20260504034505 | 56 | 225 | 2.0 | 6.0 | 0.00 | 0.00 | 0.00 | 74 | 1014.1 |
| 20260504034025 | 56 | 225 | 2.0 | 7.0 | 0.00 | 0.00 | 0.00 | 73 | 1014.0 |
| 20260504033524 | 56 | 225 | 2.0 | 9.0 | 0.00 | 0.00 | 0.00 | 72 | 1014.0 |
| 20260504033004 | 56 | 225 | 3.0 | 7.0 | 0.00 | 0.00 | 0.00 | 72 | 1013.9 |
| 20260504032505 | 57 | 270 | 3.0 | 6.0 | 0.00 | 0.00 | 0.00 | 71 | 1013.8 |
| 20260504032004 | 57 | 248 | 2.0 | 8.0 | 0.00 | 0.00 | 0.00 | 70 | 1013.8 |
| 20260504031504 | 57 | 270 | 2.0 | 10.0 | 0.00 | 0.00 | 0.00 | 69 | 1013.7 |
| 20260504031004 | 57 | 248 | 2.0 | 5.0 | 0.00 | 0.00 | 0.00 | 68 | 1013.7 |
| 20260504030504 | 58 | 315 | 1.0 | 5.0 | 0.00 | 0.00 | 0.00 | 68 | 1013.7 |
| 20260504030004 | 58 | 270 | 3.0 | 9.0 | 0.00 | 0.00 | 0.00 | 68 | 1013.6 |
| 20260504025504 | 58 | 315 | 2.0 | 5.0 | 0.00 | 0.00 | 0.00 | 68 | 1013.5 |
| 20260504025005 | 59 | 293 | 2.0 | 5.0 | 0.00 | 0.00 | 0.00 | 68 | 1013.5 |
| 20260504024504 | 59 | 315 | 2.0 | 8.0 | 0.00 | 0.00 | 0.00 | 67 | 1013.4 |
| 20260504024004 | 59 | 248 | 2.0 | 5.0 | 0.00 | 0.00 | 0.00 | 67 | 1013.2 |
| 20260504023504 | 59 | 225 | 2.0 | 6.0 | 0.00 | 0.00 | 0.00 | 67 | 1013.0 |
| 20260504023004 | 59 | 315 | 2.0 | 6.0 | 0.00 | 0.00 | 0.00 | 68 | 1013.0 |
| 20260504022504 | 60 | 225 | 3.0 | 8.0 | 0.00 | 0.00 | 0.00 | 67 | 1013.0 |
| 20260504022024 | 60 | 270 | 2.0 | 5.0 | 0.00 | 0.00 | 0.00 | 67 | 1013.0 |
| 20260504021504 | 60 | 225 | 2.0 | 9.0 | 0.00 | 0.00 | 0.00 | 67 | 1013.0 |
| 20260504021004 | 60 | 248 | 3.0 | 9.0 | 0.00 | 0.00 | 0.00 | 66 | 1012.8 |
| 20260504020504 | 60 | 225 | 3.0 | 9.0 | 0.00 | 0.00 | 0.00 | 65 | 1012.8 |
| 20260504020004 | 61 | 225 | 2.0 | 8.0 | 0.00 | 0.00 | 0.00 | 65 | 1012.9 |
| 20260504015524 | 61 | 270 | 4.0 | 9.0 | 0.00 | 0.00 | 0.00 | 65 | 1013.0 |
| 20260504015004 | 61 | 225 | 4.0 | 11.0 | 0.00 | 0.00 | 0.00 | 64 | 1013.1 |
| 20260504014504 | 62 | 293 | 3.0 | 10.0 | 0.00 | 0.00 | 0.00 | 63 | 1013.0 |
| 20260504014004 | 62 | 225 | 3.0 | 9.0 | 0.00 | 0.00 | 0.00 | 63 | 1012.9 |
| 20260504013524 | 62 | 248 | 3.0 | 9.0 | 0.00 | 0.00 | 0.00 | 61 | 1012.9 |
| 20260504013004 | 63 | 225 | 3.0 | 8.0 | 0.00 | 0.00 | 0.00 | 61 | 1012.9 |
| 20260504012524 | 63 | 293 | 3.0 | 8.0 | 0.00 | 0.00 | 0.00 | 60 | 1012.9 |
| 20260504012004 | 63 | 225 | 3.0 | 10.0 | 0.00 | 0.00 | 0.00 | 60 | 1013.0 |
| 20260504011504 | 64 | 225 | 4.0 | 10.0 | 0.00 | 0.00 | 0.00 | 58 | 1012.9 |
| 20260504011004 | 65 | 225 | 3.0 | 8.0 | 0.00 | 0.00 | 0.00 | 57 | 1013.0 |
| 20260504010504 | 65 | 225 | 4.0 | 8.0 | 0.00 | 0.00 | 0.00 | 56 | 1012.9 |
| 20260504010004 | 66 | 225 | 3.0 | 8.0 | 0.00 | 0.00 | 0.00 | 56 | 1012.8 |
| 20260504005504 | 66 | 315 | 4.0 | 8.0 | 0.00 | 0.00 | 0.00 | 56 | 1013.0 |
| 20260504005004 | 66 | 225 | 2.0 | 6.0 | 0.00 | 0.00 | 0.00 | 57 | 1012.9 |
| 20260504004504 | 65 | 225 | 3.0 | 8.0 | 0.00 | 0.00 | 0.00 | 57 | 1012.9 |
| 20260504004004 | 65 | 248 | 3.0 | 8.0 | 0.00 | 0.00 | 0.00 | 56 | 1012.8 |
| 20260504003524 | 64 | 225 | 4.0 | 8.0 | 0.00 | 0.00 | 0.00 | 56 | 1013.0 |
| 20260504003004 | 64 | 270 | 3.0 | 8.0 | 0.00 | 0.00 | 0.00 | 56 | 1012.9 |
| 20260504002504 | 65 | 225 | 3.0 | 8.0 | 0.00 | 0.00 | 0.00 | 58 | 1012.9 |
| 20260504002024 | 65 | 270 | 3.0 | 8.0 | 0.00 | 0.00 | 0.00 | 58 | 1012.7 |
| 20260504001504 | 65 | 248 | 3.0 | 8.0 | 0.00 | 0.00 | 0.00 | 57 | 1012.8 |
| 20260504001004 | 66 | 248 | 3.0 | 7.0 | 0.00 | 0.00 | 0.00 | 55 | 1012.7 |
| 20260504000503 | 66 | 248 | 3.0 | 9.0 | 0.00 | 0.00 | 0.00 | 55 | 1012.7 |
| 20260504000003 | 67 | 248 | 3.0 | 9.0 | 0.00 | 0.00 | 0.00 | 55 | 1012.6 |
| 20260503235504 | 67 | 248 | 4.0 | 9.0 | 0.00 | 0.00 | 0.00 | 54 | 1012.6 |
| 20260503235004 | 68 | 315 | 3.0 | 6.0 | 0.00 | 0.00 | 0.00 | 54 | 1012.6 |
| 20260503234504 | 67 | 315 | 3.0 | 9.0 | 0.00 | 0.00 | 0.00 | 55 | 1012.7 |
| 20260503234024 | 67 | 315 | 3.0 | 9.0 | 0.00 | 0.00 | 0.00 | 54 | 1012.6 |
| 20260503233503 | 67 | 225 | 3.0 | 9.0 | 0.00 | 0.00 | 0.00 | 54 | 1012.7 |
| 20260503233003 | 67 | 225 | 3.0 | 8.0 | 0.00 | 0.00 | 0.00 | 55 | 1012.7 |
| 20260503232503 | 66 | 225 | 3.0 | 10.0 | 0.00 | 0.00 | 0.00 | 55 | 1012.8 |
| 20260503232003 | 66 | 225 | 3.0 | 10.0 | 0.00 | 0.00 | 0.00 | 56 | 1012.9 |
| 20260503231504 | 65 | 225 | 2.0 | 9.0 | 0.00 | 0.00 | 0.00 | 59 | 1012.9 |
| 20260503231044 | 65 | 225 | 4.0 | 9.0 | 0.00 | 0.00 | 0.00 | 59 | 1013.0 |
| 20260503230504 | 64 | 225 | 2.0 | 6.0 | 0.00 | 0.00 | 0.00 | 60 | 1012.9 |
| 20260503230024 | 64 | 225 | 4.0 | 10.0 | 0.00 | 0.00 | 0.00 | 60 | 1013.0 |
| 20260503225503 | 64 | 225 | 3.0 | 7.0 | 0.00 | 0.00 | 0.00 | 61 | 1013.0 |
| 20260503225003 | 64 | 225 | 3.0 | 7.0 | 0.00 | 0.00 | 0.00 | 61 | 1013.0 |
| 20260503224524 | 64 | 225 | 4.0 | 9.0 | 0.00 | 0.00 | 0.00 | 61 | 1013.1 |
| 20260503224003 | 64 | 248 | 3.0 | 9.0 | 0.00 | 0.00 | 0.00 | 61 | 1013.1 |
| 20260503223504 | 63 | 270 | 3.0 | 11.0 | 0.00 | 0.00 | 0.00 | 63 | 1013.1 |
| 20260503223003 | 63 | 225 | 3.0 | 9.0 | 0.00 | 0.00 | 0.00 | 64 | 1013.1 |
| 20260503222504 | 63 | 225 | 3.0 | 9.0 | 0.00 | 0.00 | 0.00 | 64 | 1013.1 |
| 20260503222024 | 63 | 293 | 3.0 | 7.0 | 0.00 | 0.00 | 0.00 | 63 | 1013.1 |
| 20260503221504 | 64 | 225 | 3.0 | 9.0 | 0.00 | 0.00 | 0.00 | 63 | 1013.1 |
| 20260503221003 | 64 | 225 | 3.0 | 8.0 | 0.00 | 0.00 | 0.00 | 62 | 1013.0 |
| 20260503220504 | 64 | 225 | 3.0 | 10.0 | 0.00 | 0.00 | 0.00 | 62 | 1013.1 |
| 20260503220003 | 65 | 225 | 3.0 | 7.0 | 0.00 | 0.00 | 0.00 | 62 | 1013.0 |
| 20260503215504 | 64 | 225 | 3.0 | 7.0 | 0.00 | 0.00 | 0.00 | 63 | 1013.0 |
| 20260503215003 | 64 | 315 | 3.0 | 8.0 | 0.00 | 0.00 | 0.00 | 63 | 1012.9 |
| 20260503214504 | 63 | 270 | 2.0 | 7.0 | 0.00 | 0.00 | 0.00 | 63 | 1013.0 |
| 20260503214003 | 64 | 248 | 3.0 | 11.0 | 0.00 | 0.00 | 0.00 | 62 | 1013.2 |
| 20260503213524 | 65 | 293 | 2.0 | 11.0 | 0.00 | 0.00 | 0.00 | 61 | 1013.1 |
| 20260503213003 | 65 | 225 | 2.0 | 7.0 | 0.00 | 0.00 | 0.00 | 61 | 1013.1 |
| 20260503212504 | 65 | 225 | 2.0 | 6.0 | 0.00 | 0.00 | 0.00 | 60 | 1013.0 |
| 20260503212023 | 65 | 293 | 2.0 | 5.0 | 0.00 | 0.00 | 0.00 | 61 | 1013.0 |
| 20260503211504 | 65 | 225 | 2.0 | 5.0 | 0.00 | 0.00 | 0.00 | 61 | 1013.1 |
| 20260503211003 | 65 | 225 | 2.0 | 6.0 | 0.00 | 0.00 | 0.00 | 60 | 1013.1 |
| 20260503210503 | 65 | 315 | 1.0 | 5.0 | 0.00 | 0.00 | 0.00 | 62 | 1013.1 |
| 20260503210005 | 64 | 338 | 2.0 | 5.0 | 0.00 | 0.00 | 0.00 | 63 | 1013.1 |
| 20260503205503 | 64 | 338 | 2.0 | 6.0 | 0.00 | 0.00 | 0.00 | 62 | 1013.1 |
| 20260503205004 | 64 | 293 | 2.0 | 7.0 | 0.00 | 0.00 | 0.00 | 62 | 1013.0 |
| 20260503204523 | 64 | 225 | 2.0 | 7.0 | 0.00 | 0.00 | 0.00 | 61 | 1013.0 |
| 20260503204023 | 64 | 315 | 2.0 | 5.0 | 0.00 | 0.00 | 0.00 | 63 | 1013.2 |
| 20260503203503 | 63 | 248 | 2.0 | 6.0 | 0.00 | 0.00 | 0.00 | 63 | 1013.2 |
| 20260503203004 | 63 | 225 | 2.0 | 5.0 | 0.00 | 0.00 | 0.00 | 64 | 1013.3 |
| 20260503202503 | 64 | 315 | 2.0 | 6.0 | 0.00 | 0.00 | 0.00 | 62 | 1013.3 |
| 20260503202004 | 64 | 293 | 2.0 | 6.0 | 0.00 | 0.00 | 0.00 | 61 | 1013.3 |
| 20260503201503 | 65 | 315 | 2.0 | 5.0 | 0.00 | 0.00 | 0.00 | 61 | 1013.3 |
| 20260503201003 | 65 | 315 | 2.0 | 7.0 | 0.00 | 0.00 | 0.00 | 61 | 1013.3 |
| 20260503200503 | 65 | 315 | 2.0 | 5.0 | 0.00 | 0.00 | 0.00 | 61 | 1013.3 |
| 20260503200003 | 64 | 293 | 2.0 | 6.0 | 0.00 | 0.00 | 0.00 | 60 | 1013.4 |
| 20260503195503 | 64 | 293 | 2.0 | 6.0 | 0.00 | 0.00 | 0.00 | 59 | 1013.4 |
| 20260503195003 | 64 | 293 | 3.0 | 8.0 | 0.00 | 0.00 | 0.00 | 61 | 1013.4 |
| 20260503194503 | 63 | 225 | 2.0 | 7.0 | 0.00 | 0.00 | 0.00 | 62 | 1013.5 |
| 20260503194003 | 63 | 315 | 2.0 | 8.0 | 0.00 | 0.00 | 0.00 | 62 | 1013.4 |
| 20260503193503 | 63 | 225 | 3.0 | 5.0 | 0.00 | 0.00 | 0.00 | 61 | 1013.6 |
| 20260503193003 | 64 | 225 | 1.0 | 4.0 | 0.00 | 0.00 | 0.00 | 60 | 1013.5 |
| 20260503192504 | 65 | 225 | 2.0 | 8.0 | 0.00 | 0.00 | 0.00 | 59 | 1013.6 |
| 20260503192003 | 65 | 225 | 2.0 | 9.0 | 0.00 | 0.00 | 0.00 | 58 | 1013.6 |
| 20260503191503 | 65 | 293 | 2.0 | 4.0 | 0.00 | 0.00 | 0.00 | 58 | 1013.5 |
| 20260503191003 | 66 | 225 | 2.0 | 5.0 | 0.00 | 0.00 | 0.00 | 57 | 1013.5 |
| 20260503190504 | 65 | 0 | 1.0 | 3.0 | 0.00 | 0.00 | 0.00 | 56 | 1013.6 |
| 20260503190003 | 65 | 113 | 1.0 | 5.0 | 0.00 | 0.00 | 0.00 | 57 | 1013.6 |
| 20260503185503 | 64 | 293 | 1.0 | 4.0 | 0.00 | 0.00 | 0.00 | 59 | 1013.5 |
| 20260503185004 | 64 | 248 | 2.0 | 5.0 | 0.00 | 0.00 | 0.00 | 61 | 1013.6 |
| 20260503184503 | 64 | 315 | 2.0 | 5.0 | 0.00 | 0.00 | 0.00 | 61 | 1013.6 |
| 20260503184003 | 64 | 248 | 2.0 | 5.0 | 0.00 | 0.00 | 0.00 | 62 | 1013.6 |
| 20260503183503 | 64 | 225 | 2.0 | 7.0 | 0.00 | 0.00 | 0.00 | 60 | 1013.7 |
| 20260503183003 | 64 | 225 | 2.0 | 4.0 | 0.00 | 0.00 | 0.00 | 60 | 1013.7 |
| 20260503182503 | 64 | 315 | 2.0 | 4.0 | 0.00 | 0.00 | 0.00 | 61 | 1013.7 |
| 20260503182003 | 64 | 225 | 2.0 | 6.0 | 0.00 | 0.00 | 0.00 | 61 | 1013.7 |
| 20260503181504 | 64 | 225 | 2.0 | 9.0 | 0.00 | 0.00 | 0.00 | 60 | 1013.7 |
| 20260503181004 | 64 | 225 | 2.0 | 7.0 | 0.00 | 0.00 | 0.00 | 60 | 1013.7 |